Theta_e
331 331 336 335 336 337 336 335 335 336 337 336 338 337 337 336 339 340 338 342 346 346 349 349 349 348 347 347 346 347 347 345 344 343 343 343 341 341 339 337 337 335 331 331
332 331 335 335 335 336 336 337 337 336 337 335 336 338 337 341 339 338 341 340 339 333 345 347 347 348 346 345 346 346 345 344 342 342 342 341 340 339 338 335 334 333 332 329
331 332 335 336 335 336 336 337 335 330 331 331 331 331 340 339 342 339 336 339 336 336 339 347 348 347 346 346 346 345 342 342 342 342 339 339 340 338 335 334 332 329 329 325
332 333 335 336 337 335 329 329 328 329 328 328 330 330 336 340 342 341 342 339 342 345 343 346 346 345 346 344 343 343 343 340 340 340 339 337 336 335 335 333 331 329 328 325
333 332 335 337 334 330 328 329 328 330 329 329 335 333 334 338 343 339 340 339 332 339 347 345 345 345 344 342 341 341 341 341 341 340 337 337 335 334 334 333 331 328 326 321
330 330 329 328 329 329 330 331 332 333 332 336 335 337 336 344 344 340 337 337 334 340 346 338 337 344 343 341 341 341 339 339 339 334 329 326 328 331 329 327 324 327 324 321
332 331 329 333 332 331 332 333 332 333 332 333 336 339 344 342 340 338 337 341 337 340 341 340 342 343 343 342 340 339 338 338 336 328 326 326 324 324 322 319 316 319 322 321
334 337 334 334 334 334 334 332 333 340 341 338 337 349 352 340 337 336 337 338 340 343 338 338 342 342 342 341 340 339 338 335 329 327 326 328 328 324 322 320 318 317 319 318
337 337 334 334 334 334 335 332 332 336 338 342 341 344 344 342 341 342 340 339 340 339 338 338 341 341 341 341 340 338 336 329 326 326 327 326 325 322 321 319 315 319 318 318
337 336 335 336 337 334 332 334 337 338 347 348 342 343 346 343 343 343 340 339 337 334 334 336 337 339 341 339 339 332 327 325 325 327 327 327 326 324 321 319 318 319 319 319
335 340 340 336 336 335 333 331 336 337 342 350 349 348 341 341 340 338 338 340 334 335 335 332 329 332 327 332 328 325 325 326 327 327 328 328 325 321 319 318 318 318 318 320
337 339 339 334 330 329 328 337 340 342 342 345 344 349 341 340 339 338 339 338 331 330 331 331 327 328 325 325 325 327 326 327 326 326 327 325 323 322 322 321 319 318 319 319
335 336 332 329 328 332 335 334 335 340 339 344 346 345 339 341 335 337 341 329 331 333 330 330 328 328 325 325 325 326 326 326 326 327 326 326 324 324 322 321 320 319 319 319
335 334 333 334 335 335 336 335 336 339 342 343 342 343 338 342 339 338 335 332 332 331 330 330 330 328 327 328 327 326 326 326 326 325 326 324 323 322 321 321 321 321 320 319
341 345 345 341 337 336 335 335 339 341 340 342 342 340 339 340 337 337 332 331 331 331 330 329 328 328 327 328 328 328 327 326 324 323 322 322 321 322 322 322 322 322 321 321
344 347 345 346 342 336 337 338 339 339 338 340 341 338 331 333 333 335 333 331 332 331 329 329 329 327 327 330 328 330 324 323 321 322 322 322 322 322 322 322 322 322 322 322
347 345 345 343 340 339 342 341 341 338 335 335 341 334 330 332 332 334 333 332 332 330 328 328 329 329 329 330 330 326 324 322 323 323 324 324 325 326 325 325 323 324 325 325
341 342 342 342 340 346 341 336 336 338 333 333 332 331 330 329 330 330 330 331 328 329 329 327 328 329 330 329 327 326 325 324 323 321 322 323 323 323 322 322 321 322 323 323
339 340 340 343 345 342 342 338 337 335 336 331 332 332 331 330 330 329 328 326 328 327 328 328 329 327 326 324 321 319 317 315 315 315 316 317 318 317 318 319 317 318 320 320
344 340 340 339 342 341 343 340 337 334 339 333 331 332 331 330 333 331 328 328 329 329 326 324 321 321 322 319 318 315 312 311 311 312 313 313 313 313 314 314 312 313 313 314
346 344 345 344 344 343 342 340 335 340 338 333 332 333 332 331 330 326 327 330 328 324 321 319 317 315 316 316 314 310 308 306 307 307 308 308 308 308 307 305 305 307 307 312
345 345 345 346 346 344 337 338 343 337 336 334 333 330 334 329 330 329 329 328 326 323 321 317 315 312 312 311 309 305 304 303 303 302 302 302 303 302 298 300 300 301 303 306
344 344 345 341 342 338 337 336 332 331 336 333 331 330 330 331 330 330 328 324 323 323 319 316 314 311 309 307 305 302 301 299 300 299 299 299 299 297 297 298 299 298 298 299
340 340 340 337 336 336 336 334 335 332 334 333 331 328 330 331 330 327 324 322 321 320 319 317 313 309 307 304 301 299 298 298 298 297 298 299 296 296 296 297 298 297 297 297
338 339 337 337 336 335 333 330 336 331 331 331 332 332 331 329 327 326 324 322 318 315 313 311 310 309 305 301 299 298 297 297 297 297 296 297 296 295 296 295 295 297 296 296
338 342 339 340 336 333 335 330 328 335 332 331 329 329 328 327 324 323 320 317 311 307 305 304 303 302 301 300 298 297 297 296 296 296 296 296 295 296 295 295 295 295 295 296
Wind_Speed
9 2 2 8 7 15 6 11 13 17 9 6 8 16 15 14 9 12 11 13 16 23 10 23 20 20 17 16 19 20 18 16 16 17 16 15 13 10 10 8 7 6 4 3
8 8 7 10 11 16 15 16 22 20 19 10 16 17 21 5 4 9 14 8 14 18 28 11 24 21 19 15 17 18 18 17 16 17 16 15 14 13 11 12 8 6 7 8
9 12 7 16 17 12 19 18 13 5 6 4 5 4 7 1 10 8 4 11 13 17 20 12 14 23 19 16 17 17 18 12 16 15 14 13 16 16 15 12 12 9 7 3
10 15 16 16 17 17 10 7 8 11 10 4 4 8 4 3 1 2 8 5 13 16 17 9 16 20 22 16 17 19 18 16 15 13 16 18 20 15 14 17 18 14 10 7
13 12 16 15 16 5 7 3 7 7 9 5 5 4 5 6 2 6 7 5 4 4 12 7 9 21 25 20 18 17 16 14 11 9 8 8 9 10 15 17 17 9 10 9
10 10 8 9 8 7 9 7 6 6 4 3 5 5 7 6 5 13 17 20 8 5 10 9 16 23 24 21 19 16 16 15 14 15 16 17 19 21 17 11 10 13 10 12
12 15 15 4 6 9 12 11 5 5 5 5 2 5 4 9 8 6 11 23 12 14 15 11 14 20 21 24 23 19 17 18 19 17 15 13 12 11 13 11 8 12 13 11
3 7 7 4 4 6 5 7 3 4 3 5 8 2 3 3 2 6 12 14 16 12 16 21 17 23 25 24 24 22 23 24 20 20 14 12 10 16 10 5 2 4 9 6
3 5 5 1 4 7 5 3 5 1 3 3 1 3 1 5 8 10 11 12 13 2 4 19 21 24 28 26 27 25 24 23 20 16 16 15 10 6 3 3 2 4 2 2
4 7 8 9 9 4 5 4 3 2 2 3 1 4 1 7 5 9 13 13 7 13 22 15 6 25 24 26 26 27 23 20 20 19 16 18 11 10 7 4 4 6 5 6
6 4 6 7 5 9 9 7 3 4 4 3 2 2 4 2 4 4 5 7 9 9 12 17 23 15 29 35 32 27 20 19 21 18 17 16 14 14 9 5 4 6 8 8
1 2 3 7 18 14 11 3 6 5 6 4 4 1 4 3 1 3 7 6 8 12 16 5 5 11 20 25 23 24 20 21 18 16 22 20 17 11 3 2 4 8 10 10
2 2 4 8 7 7 5 8 3 4 3 1 2 3 5 4 5 6 6 6 7 9 6 8 11 9 5 21 21 18 15 14 15 19 18 17 14 7 4 5 7 9 11 12
3 2 5 5 8 8 11 9 3 5 3 1 2 2 5 8 6 3 4 5 5 7 8 8 7 3 14 5 24 19 15 12 15 18 18 15 10 6 6 8 10 11 11 13
5 2 3 9 12 13 14 15 4 4 5 4 1 5 6 6 5 6 5 5 6 4 6 6 4 6 19 19 12 8 12 19 17 16 13 9 5 7 10 12 14 14 15 16
3 5 4 8 14 15 15 6 7 4 6 8 7 6 7 6 5 5 7 4 5 5 3 6 7 6 12 12 11 7 18 14 8 7 5 5 9 13 14 15 16 17 19 19
2 3 2 6 9 13 8 3 6 6 7 3 2 6 8 6 5 4 6 8 7 7 8 6 4 2 4 2 6 8 11 9 7 5 4 5 1 5 6 7 7 9 10 11
2 2 1 4 7 6 3 6 6 10 10 8 7 7 8 7 4 3 4 5 7 7 7 5 6 4 4 4 6 18 16 19 20 20 20 19 19 17 15 15 15 15 16 15
6 4 2 3 4 5 5 5 6 6 7 9 10 8 8 8 5 5 8 8 8 5 10 11 9 16 21 20 18 21 23 21 21 20 19 18 16 15 16 13 15 15 16 16
6 6 4 3 3 4 3 10 7 4 3 10 12 9 11 10 5 5 10 7 10 19 21 21 19 21 22 17 15 20 22 22 21 19 18 17 18 17 17 14 15 17 16 13
5 4 8 7 5 4 12 5 8 5 5 7 9 8 10 7 5 7 13 13 21 21 22 21 20 21 19 17 15 20 18 18 15 15 13 14 16 15 13 18 18 18 20 17
8 7 5 4 1 5 7 4 10 4 6 8 8 9 8 10 11 13 13 13 15 18 19 21 22 19 15 17 16 16 15 11 12 13 13 12 14 13 18 17 18 20 16 16
3 3 1 2 4 3 2 3 4 8 5 7 8 6 13 13 13 14 10 10 11 18 20 21 22 20 16 14 14 15 12 12 13 13 13 14 13 16 15 17 18 13 16 11
7 1 4 2 6 15 6 2 3 2 3 11 16 4 9 14 15 13 10 8 8 16 16 18 19 17 15 14 14 12 11 12 12 14 15 14 17 17 19 19 14 13 14 11
1 5 5 3 8 6 4 5 5 6 9 6 18 10 9 17 14 13 11 9 15 21 20 19 15 13 13 12 12 10 9 10 12 14 16 17 17 17 16 19 20 15 14 17
3 5 4 5 10 6 5 8 6 9 7 5 11 13 10 11 12 11 9 17 20 22 22 18 13 11 10 8 10 9 9 9 11 11 15 16 18 20 15 19 22 17 14 17
Wind_Direction
257 250 184 280 246 272 272 263 271 267 209 225 236 251 253 235 236 68 66 76 139 193 166 134 140 130 128 129 136 150 157 162 160 160 165 168 175 180 170 166 173 172 129 154
269 246 222 231 244 251 242 250 260 266 227 201 234 239 246 301 105 118 111 96 79 58 341 105 131 131 137 145 150 152 152 157 162 158 170 174 167 164 163 156 149 132 146 148
226 234 146 262 272 250 247 237 265 303 304 265 236 321 122 98 105 101 100 124 116 139 182 222 126 126 138 151 155 152 145 143 186 163 162 155 154 151 152 157 147 146 168 162
249 262 190 235 252 255 257 305 346 331 334 295 313 286 214 166 115 168 163 182 151 149 178 193 138 138 143 160 160 155 142 132 132 151 151 152 155 166 174 170 159 162 175 200
284 302 212 229 239 262 260 334 286 286 285 322 298 76 244 104 7 303 256 153 201 109 140 99 147 146 146 157 160 160 148 133 126 133 149 164 172 169 157 167 177 171 182 172
274 293 298 277 296 294 304 329 335 320 290 349 264 171 359 350 303 357 359 349 186 143 131 140 241 153 146 157 163 157 142 129 117 109 104 100 102 121 129 137 126 179 177 161
270 267 266 0 6 357 12 2 325 336 347 248 1 77 229 339 348 354 4 14 133 155 126 194 214 142 142 167 170 170 149 134 128 114 101 97 101 107 106 97 86 80 134 170
278 342 14 357 130 174 275 157 239 293 271 289 350 99 281 248 298 330 42 62 50 22 147 213 167 158 159 175 175 166 147 137 134 127 113 103 91 99 87 67 24 90 120 108
357 293 339 244 169 136 246 262 204 225 354 10 237 54 353 352 356 9 35 23 32 341 199 327 171 159 166 172 166 155 144 140 140 146 146 143 150 148 127 42 152 108 186 252
291 318 344 338 335 325 15 264 352 34 229 274 271 302 213 327 0 5 8 18 45 49 43 329 278 151 159 162 152 145 142 153 165 174 173 160 166 172 168 174 197 234 261 278
276 63 306 352 330 303 319 317 354 112 139 184 255 238 354 20 58 358 7 70 81 103 69 7 349 103 118 135 149 150 154 168 181 183 175 169 170 161 152 162 209 238 257 263
279 184 285 267 279 278 254 235 137 124 283 210 182 210 251 225 15 250 82 116 111 106 119 122 3 10 119 132 147 157 166 173 180 181 166 162 156 157 172 290 254 252 250 263
334 1 330 331 328 355 21 313 7 109 71 351 68 267 210 221 131 61 84 119 120 102 121 120 77 9 163 157 165 167 169 179 190 187 174 161 163 180 254 255 260 260 262 267
94 165 177 217 257 278 300 312 36 105 101 244 246 94 64 59 75 83 108 131 132 164 150 121 123 171 61 23 166 167 173 163 134 141 156 157 164 206 242 255 255 262 266 270
131 189 294 289 293 299 294 278 109 96 135 152 53 94 79 109 118 114 136 107 94 92 65 71 45 22 33 6 348 167 131 122 125 126 143 160 205 244 246 245 252 259 259 268
223 195 215 274 282 286 294 242 140 150 155 118 143 121 111 97 83 110 135 126 97 87 93 50 23 26 17 349 359 337 114 109 113 127 161 208 232 238 241 249 258 267 269 273
179 153 113 270 284 304 303 275 137 108 71 100 103 148 131 116 115 146 146 174 185 183 189 184 209 35 41 250 286 187 114 122 143 178 254 284 348 20 320 299 312 338 344 332
101 42 45 281 310 286 225 80 101 105 121 108 108 115 123 143 171 239 225 167 196 203 215 215 207 250 303 300 90 85 88 79 75 57 47 36 33 28 18 7 7 358 349 346
152 136 295 210 264 262 151 171 145 153 186 154 146 146 158 175 154 261 233 217 228 227 188 174 151 103 78 73 79 79 67 61 51 38 33 33 27 19 15 10 6 4 356 0
151 153 155 244 225 257 210 157 172 109 278 159 150 170 164 156 175 220 206 194 115 91 93 97 95 83 74 71 71 67 56 47 35 25 22 24 16 4 357 0 357 351 345 339
171 198 206 237 235 296 8 9 106 125 231 149 165 181 169 171 187 141 111 101 110 111 106 104 93 82 71 82 79 68 56 41 27 21 15 9 7 2 357 352 350 347 336 325
177 178 222 262 273 330 28 345 341 229 149 167 189 210 167 151 128 118 116 118 119 121 116 114 106 94 86 84 86 75 57 34 24 19 7 6 2 5 359 355 349 350 17 21
179 61 152 145 162 222 63 246 262 13 29 357 301 141 153 136 137 126 126 122 120 119 127 126 119 109 100 92 82 74 54 34 24 16 5 359 5 2 356 348 340 16 9 28
24 17 103 53 261 239 199 174 219 213 15 349 309 168 137 135 130 119 110 107 104 108 106 124 116 104 98 95 86 77 54 34 25 12 1 6 6 355 353 354 3 5 3 342
110 145 152 233 300 304 280 184 184 133 130 262 285 68 118 118 119 123 123 118 110 97 89 85 82 104 105 102 93 75 52 33 24 12 0 354 352 340 348 356 351 346 349 339
239 171 180 224 206 189 227 183 190 177 141 164 102 81 69 95 109 110 92 104 100 95 91 81 80 76 75 84 102 75 45 29 16 5 346 339 334 335 357 350 338 343 335 335